Orbital Elements at Epoch 2459200.5 (2020-Dec-17.0) TDB
Reference: JPL 13 (heliocentric ecliptic J2000)
Element | Value | Uncertainty (1-sigma) | Units |
e | .1849534449154461 | 5.8411e-08 | |
a | 2.449087623879402 | 8.3847e-09 | au |
q | 1.996120430943122 | 1.4654e-07 | au |
i | 1.706279467352695 | 3.9661e-06 | deg |
node | 220.477107700866 | 0.00017297 | deg |
peri | 121.3059325321567 | 0.00017328 | deg |
M | 22.87130546476168 | 8.9028e-06 | deg |
tp | 2459111.560769855790 (2020-Sep-19.06076986) | 3.4648e-05 | TDB |
period | 1399.925461239919 3.83 | 7.1892e-06 1.968e-08 | d yr |
n | .2571565486644887 | 1.3206e-09 | deg/d |
Q | 2.902054816815682 | 9.9355e-09 | au |
|
| | Orbit Determination Parameters
Additional Information
|